Погода в Чопе

Украина / Закарпатская область     48°25′52″N   22°12′44″E
темп.,
°C
ветер,
м/с
пор.,
м/с
влажн.,
%
обл.,
%
осадки,
мм/ч
давл.,
гПа
погр.,
м
28 февраля, вс
вс2823:00+3ссз510877 0.0 1033362
02:00+2сз59868 0.0 1033226
05:00+1ссз49890 0.0 1034202
08:00+1сз369019 0.0 1034143
11:00+5сз5873100 0.0 10341004
14:00+8сз576288 0.0 10321255
17:00+8сз23650 0.0 1031150
20:00+5з227134 0.0 103123
1 марта, пн
пн123:00+3с347671 0.0 103170
02:00+4сз5137782 0.0 1031628
05:00+3ссз599188 0.0 1030308
08:00+4сз588692 0.1 1032250
11:00+6ссз576954 0.0 10331051
14:00+8с566149 0.0 10341265
17:00+7с466616 0.0 1034989
20:00+4с34788 0.0 103565
2 марта, вт
вт223:00+2с23850 0.0 103655
02:00+1с23860 0.0 103633
05:00+1ссз11860 0.0 103522
08:00+1ссв01850 0.0 103522
11:00+5юз11720 0.0 1035389
14:00+7з22660 0.0 1034600
17:00+8зсз11690 0.0 1032402
20:00+5в11800 0.0 103322
3 марта, ср
ср323:00+4всв12830 0.0 103422
02:00+3всв11860 0.0 103422
05:00+2всв11880 0.0 103322
08:00+2вюв11880 0.0 103322
11:00+6юв127519 0.0 1032334
14:00+9ю116823 0.0 1030494
17:00+9ю12713 0.0 1028490
20:00+6в22802 0.0 102922
4 марта, чт
чт423:00+5вюв33830 0.0 102844
02:00+4вюв34860 0.0 102679
05:00+3вюв35890 0.0 102592
08:00+3юв479126 0.0 1023161
11:00+7ююв457930 0.0 1021506
14:00+11ю356117 0.0 1018978
17:00+11ююз246858 0.0 1016257
20:00+7ююв337543 0.0 101634